Time,TemperatureF,DewpointF,PressureIn,WindDirection,WindDirectionDegrees,WindSpeedMPH,WindSpeedGustMPH,Humidity,HourlyPrecipIn,Conditions,Clouds,dailyrainin,SoftwareType,DateUTC
2013-08-02 00:04:00,57.2,55.5,29.88,West,270,0.0,0.0,94,0.00,,,0.00,VWS V14.01,2013-08-02 05:04:00,
2013-08-02 00:09:00,57.0,55.6,29.88,West,270,0.0,0.0,95,0.00,,,0.00,VWS V14.01,2013-08-02 05:09:00,
2013-08-02 00:14:00,56.8,55.4,29.88,West,270,0.0,0.0,95,0.00,,,0.00,VWS V14.01,2013-08-02 05:14:00,
2013-08-02 00:19:00,56.7,55.2,29.88,West,270,0.0,0.0,95,0.00,,,0.00,VWS V14.01,2013-08-02 05:19:00,
2013-08-02 00:24:00,56.7,55.2,29.88,West,270,0.0,0.0,95,0.00,,,0.00,VWS V14.01,2013-08-02 05:24:00,
2013-08-02 00:29:00,56.7,55.2,29.88,West,270,0.0,0.0,95,0.00,,,0.00,VWS V14.01,2013-08-02 05:29:00,
2013-08-02 00:34:00,56.5,55.1,29.85,West,270,0.0,0.0,95,0.00,,,0.00,VWS V14.01,2013-08-02 05:34:00,
2013-08-02 00:39:00,56.3,55.2,29.85,West,270,0.0,0.0,96,0.00,,,0.00,VWS V14.01,2013-08-02 05:39:00,
2013-08-02 00:45:00,56.3,55.2,29.85,West,270,0.0,0.0,96,0.00,,,0.00,VWS V14.01,2013-08-02 05:45:00,
2013-08-02 00:50:00,56.3,55.2,29.88,West,270,0.0,0.0,96,0.00,,,0.00,VWS V14.01,2013-08-02 05:50:00,
2013-08-02 00:55:00,56.1,55.0,29.88,West,270,0.0,0.0,96,0.00,,,0.00,VWS V14.01,2013-08-02 05:55:00,
2013-08-02 01:00:00,55.9,54.8,29.88,West,270,0.0,0.0,96,0.00,,,0.00,VWS V14.01,2013-08-02 06:00:00,
2013-08-02 01:05:00,55.9,54.8,29.91,West,270,0.0,0.0,96,0.00,,,0.00,VWS V14.01,2013-08-02 06:05:00,
2013-08-02 01:10:00,55.8,54.9,29.91,West,270,0.0,0.0,97,0.00,,,0.00,VWS V14.01,2013-08-02 06:10:00,
2013-08-02 01:15:00,55.8,54.6,29.91,West,270,0.0,0.0,96,0.00,,,0.00,VWS V14.01,2013-08-02 06:15:00,
2013-08-02 01:20:00,55.6,54.5,29.88,West,270,0.0,0.0,96,0.00,,,0.00,VWS V14.01,2013-08-02 06:20:00,
2013-08-02 01:25:00,55.6,54.5,29.88,West,270,0.0,0.0,96,0.00,,,0.00,VWS V14.01,2013-08-02 06:25:00,
2013-08-02 01:30:00,55.4,54.3,29.88,West,270,0.0,0.0,96,0.00,,,0.00,VWS V14.01,2013-08-02 06:30:00,
2013-08-02 01:35:00,55.2,54.4,29.88,West,270,0.0,0.0,97,0.00,,,0.00,VWS V14.01,2013-08-02 06:35:00,
2013-08-02 01:40:00,55.2,54.4,29.88,West,270,0.0,0.0,97,0.00,,,0.00,VWS V14.01,2013-08-02 06:40:00,
2013-08-02 01:45:00,55.0,54.2,29.88,West,270,0.0,0.0,97,0.00,,,0.00,VWS V14.01,2013-08-02 06:45:00,
2013-08-02 01:51:00,54.9,54.0,29.88,West,270,0.0,0.0,97,0.00,,,0.00,VWS V14.01,2013-08-02 06:51:00,
2013-08-02 01:56:00,54.9,54.0,29.88,West,270,0.0,0.0,97,0.00,,,0.00,VWS V14.01,2013-08-02 06:56:00,
2013-08-02 02:01:00,54.7,53.8,29.88,West,270,0.0,0.0,97,0.00,,,0.00,VWS V14.01,2013-08-02 07:01:00,
2013-08-02 02:06:00,54.7,53.8,29.88,West,270,0.0,0.0,97,0.00,,,0.00,VWS V14.01,2013-08-02 07:06:00,
2013-08-02 02:11:00,54.5,53.7,29.88,West,270,0.0,0.0,97,0.00,,,0.00,VWS V14.01,2013-08-02 07:11:00,
2013-08-02 02:16:00,54.5,53.7,29.88,West,270,0.0,0.0,97,0.00,,,0.00,VWS V14.01,2013-08-02 07:16:00,
2013-08-02 02:21:00,54.5,54.0,29.88,West,270,0.0,0.0,98,0.00,,,0.00,VWS V14.01,2013-08-02 07:21:00,
2013-08-02 02:26:00,54.3,53.8,29.88,West,270,0.0,0.0,98,0.00,,,0.00,VWS V14.01,2013-08-02 07:26:00,
2013-08-02 02:31:00,54.5,54.0,29.88,West,270,0.0,0.0,98,0.00,,,0.00,VWS V14.01,2013-08-02 07:31:00,
2013-08-02 02:36:00,54.5,54.0,29.88,West,270,0.0,0.0,98,0.00,,,0.00,VWS V14.01,2013-08-02 07:36:00,
2013-08-02 02:41:00,54.5,54.0,29.88,West,270,0.0,0.0,98,0.00,,,0.00,VWS V14.01,2013-08-02 07:41:00,
2013-08-02 02:46:00,54.5,54.0,29.85,West,270,0.0,0.0,98,0.00,,,0.00,VWS V14.01,2013-08-02 07:46:00,
2013-08-02 02:52:00,54.5,54.0,29.85,West,270,0.0,0.0,98,0.00,,,0.00,VWS V14.01,2013-08-02 07:52:00,
2013-08-02 02:57:00,54.5,54.0,29.85,West,270,0.0,0.0,98,0.00,,,0.00,VWS V14.01,2013-08-02 07:57:00,
2013-08-02 03:02:00,54.3,53.8,29.85,West,270,0.0,0.0,98,0.00,,,0.00,VWS V14.01,2013-08-02 08:02:00,
2013-08-02 03:07:00,54.1,53.6,29.85,West,270,0.0,0.0,98,0.00,,,0.00,VWS V14.01,2013-08-02 08:07:00,
2013-08-02 03:12:00,54.1,53.6,29.85,West,270,0.0,0.0,98,0.00,,,0.00,VWS V14.01,2013-08-02 08:12:00,
2013-08-02 03:17:00,54.0,53.4,29.85,West,270,0.0,0.0,98,0.00,,,0.00,VWS V14.01,2013-08-02 08:17:00,
2013-08-02 03:22:00,54.0,53.4,29.85,West,270,0.0,0.0,98,0.00,,,0.00,VWS V14.01,2013-08-02 08:22:00,
2013-08-02 03:27:00,54.0,53.4,29.85,West,270,0.0,0.0,98,0.00,,,0.00,VWS V14.01,2013-08-02 08:27:00,
2013-08-02 03:32:00,53.8,53.2,29.88,West,270,0.0,0.0,98,0.00,,,0.00,VWS V14.01,2013-08-02 08:32:00,
2013-08-02 03:37:00,53.8,53.2,29.88,West,270,0.0,0.0,98,0.00,,,0.00,VWS V14.01,2013-08-02 08:37:00,
2013-08-02 03:42:00,53.6,53.0,29.88,West,270,0.0,0.0,98,0.00,,,0.00,VWS V14.01,2013-08-02 08:42:00,
2013-08-02 03:47:00,53.8,53.2,29.88,West,270,0.0,0.0,98,0.00,,,0.00,VWS V14.01,2013-08-02 08:47:00,
2013-08-02 03:53:00,53.8,53.2,29.88,West,270,0.0,0.0,98,0.00,,,0.00,VWS V14.01,2013-08-02 08:53:00,
2013-08-02 03:58:00,53.8,53.2,29.88,West,270,0.0,0.0,98,0.00,,,0.00,VWS V14.01,2013-08-02 08:58:00,
2013-08-02 04:03:00,53.6,53.0,29.88,West,270,0.0,0.0,98,0.00,,,0.00,VWS V14.01,2013-08-02 09:03:00,
2013-08-02 04:08:00,53.4,52.9,29.88,West,270,0.0,0.0,98,0.00,,,0.00,VWS V14.01,2013-08-02 09:08:00,
2013-08-02 04:13:00,53.2,52.7,29.88,West,270,0.0,0.0,98,0.00,,,0.00,VWS V14.01,2013-08-02 09:13:00,
2013-08-02 04:18:00,53.1,52.5,29.88,West,270,0.0,0.0,98,0.00,,,0.00,VWS V14.01,2013-08-02 09:18:00,
2013-08-02 04:23:00,52.9,52.3,29.88,West,270,0.0,0.0,98,0.00,,,0.00,VWS V14.01,2013-08-02 09:23:00,
2013-08-02 04:28:00,52.9,52.3,29.88,West,270,0.0,0.0,98,0.00,,,0.00,VWS V14.01,2013-08-02 09:28:00,
2013-08-02 04:33:00,52.7,52.2,29.85,West,270,0.0,0.0,98,0.00,,,0.00,VWS V14.01,2013-08-02 09:33:00,
2013-08-02 04:38:00,52.5,52.0,29.85,West,270,0.0,0.0,98,0.00,,,0.00,VWS V14.01,2013-08-02 09:38:00,
2013-08-02 04:44:00,52.3,51.8,29.85,West,270,0.0,0.0,98,0.00,,,0.00,VWS V14.01,2013-08-02 09:44:00,
2013-08-02 04:48:00,52.2,51.6,29.88,West,270,0.0,0.0,98,0.00,,,0.00,VWS V14.01,2013-08-02 09:48:00,
2013-08-02 04:54:00,52.0,51.4,29.88,West,270,0.0,0.0,98,0.00,,,0.00,VWS V14.01,2013-08-02 09:54:00,
2013-08-02 04:59:00,51.8,51.3,29.88,West,270,0.0,0.0,98,0.00,,,0.00,VWS V14.01,2013-08-02 09:59:00,
2013-08-02 05:04:00,51.6,51.1,29.85,West,270,0.0,0.0,98,0.00,,,0.00,VWS V14.01,2013-08-02 10:04:00,
2013-08-02 05:09:00,51.6,51.1,29.85,West,270,0.0,0.0,98,0.00,,,0.00,VWS V14.01,2013-08-02 10:09:00,
2013-08-02 05:14:00,51.6,51.1,29.85,West,270,0.0,0.0,98,0.00,,,0.00,VWS V14.01,2013-08-02 10:14:00,
2013-08-02 05:19:00,51.4,50.9,29.88,West,270,0.0,0.0,98,0.00,,,0.00,VWS V14.01,2013-08-02 10:19:00,
2013-08-02 05:24:00,51.3,50.7,29.88,West,270,0.0,0.0,98,0.00,,,0.00,VWS V14.01,2013-08-02 10:24:00,
2013-08-02 05:29:00,51.1,50.5,29.88,West,270,0.0,0.0,98,0.00,,,0.00,VWS V14.01,2013-08-02 10:29:00,
2013-08-02 05:35:00,50.9,50.4,29.88,West,270,0.0,0.0,98,0.00,,,0.00,VWS V14.01,2013-08-02 10:35:00,
2013-08-02 05:39:00,50.9,50.4,29.88,West,270,0.0,0.0,98,0.00,,,0.00,VWS V14.01,2013-08-02 10:39:00,
2013-08-02 05:45:00,50.7,50.2,29.88,West,270,0.0,0.0,98,0.00,,,0.00,VWS V14.01,2013-08-02 10:45:00,
2013-08-02 05:50:00,50.5,50.0,29.88,West,270,0.0,0.0,98,0.00,,,0.00,VWS V14.01,2013-08-02 10:50:00,
2013-08-02 05:55:00,50.5,50.0,29.88,West,270,0.0,0.0,98,0.00,,,0.00,VWS V14.01,2013-08-02 10:55:00,
2013-08-02 06:00:00,50.4,49.8,29.88,West,270,0.0,0.0,98,0.00,,,0.00,VWS V14.01,2013-08-02 11:00:00,
2013-08-02 06:05:00,50.4,49.8,29.88,West,270,0.0,0.0,98,0.00,,,0.00,VWS V14.01,2013-08-02 11:05:00,
2013-08-02 06:10:00,50.2,49.6,29.88,West,270,0.0,0.0,98,0.00,,,0.00,VWS V14.01,2013-08-02 11:10:00,
2013-08-02 06:15:00,50.2,49.6,29.88,West,270,0.0,0.0,98,0.00,,,0.00,VWS V14.01,2013-08-02 11:15:00,
2013-08-02 06:20:00,50.4,49.8,29.88,West,270,0.0,0.0,98,0.00,,,0.00,VWS V14.01,2013-08-02 11:20:00,
2013-08-02 06:25:00,50.4,49.8,29.88,West,270,0.0,0.0,98,0.00,,,0.00,VWS V14.01,2013-08-02 11:25:00,
2013-08-02 06:30:00,50.5,50.0,29.88,West,270,0.0,0.0,98,0.00,,,0.00,VWS V14.01,2013-08-02 11:30:00,
2013-08-02 06:35:00,50.7,50.2,29.88,West,270,0.0,0.0,98,0.00,,,0.00,VWS V14.01,2013-08-02 11:35:00,
2013-08-02 06:41:00,51.1,50.5,29.88,West,270,0.0,0.0,98,0.00,,,0.00,VWS V14.01,2013-08-02 11:41:00,
2013-08-02 06:46:00,51.6,51.1,29.91,SSW,202,0.0,1.3,98,0.00,,,0.00,VWS V14.01,2013-08-02 11:46:00,
2013-08-02 06:51:00,52.0,51.4,29.91,SSW,202,0.0,0.0,98,0.00,,,0.00,VWS V14.01,2013-08-02 11:51:00,
2013-08-02 06:56:00,52.3,51.8,29.91,SSW,202,0.0,0.0,98,0.00,,,0.00,VWS V14.01,2013-08-02 11:56:00,
2013-08-02 07:01:00,53.2,52.7,29.91,SSW,202,0.0,0.0,98,0.00,,,0.00,VWS V14.01,2013-08-02 12:01:00,
2013-08-02 07:06:00,54.7,54.1,29.91,East,90,0.0,0.0,98,0.00,,,0.00,VWS V14.01,2013-08-02 12:06:00,
2013-08-02 07:11:00,55.4,54.8,29.91,East,90,0.0,0.0,98,0.00,,,0.00,VWS V14.01,2013-08-02 12:11:00,
2013-08-02 07:17:00,56.5,55.9,29.91,ESE,112,0.0,0.0,98,0.00,,,0.00,VWS V14.01,2013-08-02 12:17:00,
2013-08-02 07:22:00,57.7,57.2,29.91,South,180,1.1,3.6,98,0.00,,,0.00,VWS V14.01,2013-08-02 12:22:00,
2013-08-02 07:27:00,58.8,58.3,29.91,South,180,0.0,2.0,98,0.00,,,0.00,VWS V14.01,2013-08-02 12:27:00,
2013-08-02 07:32:00,59.7,59.2,29.91,SSE,158,2.2,2.2,98,0.00,,,0.00,VWS V14.01,2013-08-02 12:32:00,
2013-08-02 07:37:00,60.3,59.7,29.91,SE,135,0.0,0.0,98,0.00,,,0.00,VWS V14.01,2013-08-02 12:37:00,
2013-08-02 07:42:00,61.3,60.8,29.91,SW,225,2.5,2.5,98,0.00,,,0.00,VWS V14.01,2013-08-02 12:42:00,
2013-08-02 07:47:00,61.9,61.0,29.91,South,180,3.4,3.4,97,0.00,,,0.00,VWS V14.01,2013-08-02 12:47:00,
2013-08-02 07:52:00,62.4,60.7,29.91,South,180,1.1,3.4,94,0.00,,,0.00,VWS V14.01,2013-08-02 12:52:00,
2013-08-02 07:58:00,63.0,60.9,29.91,South,180,2.5,2.5,93,0.00,,,0.00,VWS V14.01,2013-08-02 12:58:00,
2013-08-02 08:03:00,63.7,61.6,29.91,SE,135,0.0,2.9,93,0.00,,,0.00,VWS V14.01,2013-08-02 13:03:00,
2013-08-02 08:08:00,64.2,61.8,29.91,SSW,202,1.6,2.2,92,0.00,,,0.00,VWS V14.01,2013-08-02 13:08:00,
2013-08-02 08:13:00,64.4,61.4,29.91,WSW,248,0.0,3.1,90,0.00,,,0.00,VWS V14.01,2013-08-02 13:13:00,
2013-08-02 08:18:00,64.9,61.3,29.91,WNW,292,0.9,2.5,88,0.00,,,0.00,VWS V14.01,2013-08-02 13:18:00,
2013-08-02 08:23:00,65.5,61.5,29.91,SE,135,0.0,2.5,87,0.00,,,0.00,VWS V14.01,2013-08-02 13:23:00,
2013-08-02 08:28:00,65.8,61.9,29.91,WSW,248,1.6,2.7,87,0.00,,,0.00,VWS V14.01,2013-08-02 13:28:00,
2013-08-02 08:33:00,66.2,61.2,29.91,WNW,292,1.3,1.3,84,0.00,,,0.00,VWS V14.01,2013-08-02 13:33:00,
2013-08-02 08:38:00,66.6,60.9,29.91,South,180,2.5,2.5,82,0.00,,,0.00,VWS V14.01,2013-08-02 13:38:00,
2013-08-02 08:43:00,66.9,61.9,29.91,South,180,2.2,2.7,84,0.00,,,0.00,VWS V14.01,2013-08-02 13:43:00,
2013-08-02 08:48:00,67.1,60.7,29.94,WSW,248,2.2,3.4,80,0.00,,,0.00,VWS V14.01,2013-08-02 13:48:00,
2013-08-02 08:53:00,68.0,61.6,29.94,NNE,22,1.6,1.6,80,0.00,,,0.00,VWS V14.01,2013-08-02 13:53:00,
2013-08-02 08:58:00,68.0,60.5,29.94,NW,315,1.3,1.6,77,0.00,,,0.00,VWS V14.01,2013-08-02 13:58:00,
2013-08-02 09:03:00,68.5,61.0,29.94,West,270,3.4,3.4,77,0.00,,,0.00,VWS V14.01,2013-08-02 14:03:00,
2013-08-02 09:08:00,69.1,61.2,29.94,SE,135,3.6,4.0,76,0.00,,,0.00,VWS V14.01,2013-08-02 14:08:00,
2013-08-02 09:13:00,69.3,60.2,29.94,North,0,4.0,4.0,73,0.00,,,0.00,VWS V14.01,2013-08-02 14:13:00,
2013-08-02 09:18:00,70.0,61.3,29.94,NW,315,2.5,2.5,74,0.00,,,0.00,VWS V14.01,2013-08-02 14:18:00,
2013-08-02 09:24:00,70.2,60.3,29.94,SSW,202,2.9,4.3,71,0.00,,,0.00,VWS V14.01,2013-08-02 14:24:00,
2013-08-02 09:29:00,70.3,60.5,29.94,WNW,292,2.0,3.4,71,0.00,,,0.00,VWS V14.01,2013-08-02 14:29:00,
2013-08-02 09:34:00,70.3,60.1,29.94,NW,315,1.1,3.4,70,0.00,,,0.00,VWS V14.01,2013-08-02 14:34:00,
2013-08-02 09:39:00,71.1,61.2,29.94,SSW,202,1.3,2.5,71,0.00,,,0.00,VWS V14.01,2013-08-02 14:39:00,
2013-08-02 09:44:00,71.2,60.6,29.94,NE,45,1.3,3.4,69,0.00,,,0.00,VWS V14.01,2013-08-02 14:44:00,
2013-08-02 09:49:00,71.8,60.7,29.94,WNW,292,2.9,5.4,68,0.00,,,0.00,VWS V14.01,2013-08-02 14:49:00,
2013-08-02 09:55:00,72.1,58.9,29.94,NNE,22,2.0,6.5,63,0.00,,,0.00,VWS V14.01,2013-08-02 14:55:00,
2013-08-02 10:00:00,72.3,58.6,29.94,North,0,3.4,6.5,62,0.00,,,0.00,VWS V14.01,2013-08-02 15:00:00,
2013-08-02 10:05:00,72.9,59.5,29.91,WNW,292,2.5,4.3,63,0.00,,,0.00,VWS V14.01,2013-08-02 15:05:00,
2013-08-02 10:10:00,73.4,58.7,29.91,WSW,248,4.3,4.3,60,0.00,,,0.00,VWS V14.01,2013-08-02 15:10:00,
2013-08-02 10:15:00,73.6,58.4,29.91,East,90,3.6,3.6,59,0.00,,,0.00,VWS V14.01,2013-08-02 15:15:00,
2013-08-02 10:20:00,73.8,57.6,29.94,WNW,292,6.5,10.3,57,0.00,,,0.00,VWS V14.01,2013-08-02 15:20:00,
2013-08-02 10:25:00,73.8,56.6,29.94,NNE,22,3.6,7.6,55,0.00,,,0.00,VWS V14.01,2013-08-02 15:25:00,
2013-08-02 10:30:00,74.1,57.4,29.94,West,270,4.0,4.0,56,0.00,,,0.00,VWS V14.01,2013-08-02 15:30:00,
2013-08-02 10:35:00,74.3,56.1,29.94,West,270,3.6,5.6,53,0.00,,,0.00,VWS V14.01,2013-08-02 15:35:00,
2013-08-02 10:41:00,74.5,55.2,29.94,NNE,22,2.5,8.1,51,0.00,,,0.00,VWS V14.01,2013-08-02 15:41:00,
2013-08-02 10:46:00,74.8,55.5,29.94,NNW,338,4.9,5.6,51,0.00,,,0.00,VWS V14.01,2013-08-02 15:46:00,
2013-08-02 10:51:00,75.2,55.3,29.94,WNW,292,3.6,4.3,50,0.00,,,0.00,VWS V14.01,2013-08-02 15:51:00,
2013-08-02 10:56:00,75.4,54.9,29.94,West,270,4.7,7.4,49,0.00,,,0.00,VWS V14.01,2013-08-02 15:56:00,
2013-08-02 11:01:00,75.2,54.8,29.94,NNE,22,2.0,6.5,49,0.00,,,0.00,VWS V14.01,2013-08-02 16:01:00,
2013-08-02 11:07:00,75.6,55.1,29.94,ESE,112,2.0,7.2,49,0.00,,,0.00,VWS V14.01,2013-08-02 16:07:00,
2013-08-02 11:12:00,75.7,55.2,29.94,NE,45,2.9,4.3,49,0.00,,,0.00,VWS V14.01,2013-08-02 16:12:00,
2013-08-02 11:17:00,75.9,54.8,29.94,WSW,248,3.1,4.0,48,0.00,,,0.00,VWS V14.01,2013-08-02 16:17:00,
2013-08-02 11:22:00,76.1,54.4,29.94,West,270,5.4,6.3,47,0.00,,,0.00,VWS V14.01,2013-08-02 16:22:00,
2013-08-02 11:27:00,76.3,55.2,29.94,West,270,4.7,7.6,48,0.00,,,0.00,VWS V14.01,2013-08-02 16:27:00,
2013-08-02 11:32:00,76.5,54.8,29.94,ESE,112,4.0,6.5,47,0.00,,,0.00,VWS V14.01,2013-08-02 16:32:00,
2013-08-02 11:37:00,76.6,54.3,29.94,NW,315,1.1,4.7,46,0.00,,,0.00,VWS V14.01,2013-08-02 16:37:00,
2013-08-02 11:42:00,76.5,54.2,29.94,East,90,4.0,8.1,46,0.00,,,0.00,VWS V14.01,2013-08-02 16:42:00,
2013-08-02 11:47:00,76.3,53.4,29.94,NNW,338,3.8,6.0,45,0.00,,,0.00,VWS V14.01,2013-08-02 16:47:00,
2013-08-02 11:52:00,76.3,53.4,29.94,East,90,1.6,4.9,45,0.00,,,0.00,VWS V14.01,2013-08-02 16:52:00,
2013-08-02 11:57:00,76.1,52.6,29.94,NE,45,2.7,5.8,44,0.00,,,0.00,VWS V14.01,2013-08-02 16:57:00,
2013-08-02 12:02:00,75.7,52.9,29.94,WNW,292,0.9,5.6,45,0.00,,,0.00,VWS V14.01,2013-08-02 17:02:00,
2013-08-02 12:07:00,75.9,53.1,29.94,ENE,68,2.9,6.3,45,0.00,,,0.00,VWS V14.01,2013-08-02 17:07:00,
2013-08-02 12:12:00,75.9,53.1,29.94,NE,45,2.9,8.1,45,0.00,,,0.00,VWS V14.01,2013-08-02 17:12:00,
2013-08-02 12:18:00,76.3,52.8,29.94,East,90,3.1,8.1,44,0.00,,,0.00,VWS V14.01,2013-08-02 17:18:00,
2013-08-02 12:23:00,76.5,53.0,29.94,ENE,68,4.0,6.0,44,0.00,,,0.00,VWS V14.01,2013-08-02 17:23:00,
2013-08-02 12:28:00,76.5,53.0,29.94,East,90,3.4,3.4,44,0.00,,,0.00,VWS V14.01,2013-08-02 17:28:00,
2013-08-02 12:33:00,76.3,52.2,29.94,WNW,292,2.9,7.8,43,0.00,,,0.00,VWS V14.01,2013-08-02 17:33:00,
2013-08-02 12:38:00,76.1,52.6,29.94,NNW,338,1.3,8.7,44,0.00,,,0.00,VWS V14.01,2013-08-02 17:38:00,
2013-08-02 12:43:00,76.3,52.2,29.94,NNE,22,4.7,4.7,43,0.00,,,0.00,VWS V14.01,2013-08-02 17:43:00,
2013-08-02 12:48:00,75.9,52.5,29.94,East,90,5.8,5.8,44,0.00,,,0.00,VWS V14.01,2013-08-02 17:48:00,
2013-08-02 12:53:00,76.8,53.9,29.94,SE,135,2.9,4.3,45,0.00,,,0.00,VWS V14.01,2013-08-02 17:53:00,
2013-08-02 12:58:00,77.4,53.8,29.94,East,90,2.0,5.4,44,0.00,,,0.00,VWS V14.01,2013-08-02 17:58:00,
2013-08-02 13:03:00,77.0,52.2,29.97,ENE,68,2.0,8.7,42,0.00,,,0.00,VWS V14.01,2013-08-02 18:03:00,
2013-08-02 13:08:00,77.4,53.1,29.97,WNW,292,3.1,3.1,43,0.00,,,0.00,VWS V14.01,2013-08-02 18:08:00,
2013-08-02 13:13:00,77.5,53.9,29.97,ENE,68,5.6,5.6,44,0.00,,,0.00,VWS V14.01,2013-08-02 18:13:00,
2013-08-02 13:18:00,77.5,53.3,29.94,North,0,1.3,2.0,43,0.00,,,0.00,VWS V14.01,2013-08-02 18:18:00,
2013-08-02 13:23:00,77.2,53.0,29.94,NW,315,1.1,2.2,43,0.00,,,0.00,VWS V14.01,2013-08-02 18:23:00,
2013-08-02 13:28:00,76.5,52.3,29.94,NW,315,1.1,7.6,43,0.00,,,0.00,VWS V14.01,2013-08-02 18:28:00,
2013-08-02 13:34:00,76.3,52.8,29.94,WNW,292,1.6,2.9,44,0.00,,,0.00,VWS V14.01,2013-08-02 18:34:00,
2013-08-02 13:39:00,76.6,53.1,29.94,WNW,292,1.6,2.7,44,0.00,,,0.00,VWS V14.01,2013-08-02 18:39:00,
2013-08-02 13:44:00,76.5,53.0,29.94,NE,45,2.5,4.3,44,0.00,,,0.00,VWS V14.01,2013-08-02 18:44:00,
2013-08-02 13:49:00,76.3,52.8,29.91,NNW,338,6.0,6.5,44,0.00,,,0.00,VWS V14.01,2013-08-02 18:49:00,
2013-08-02 13:54:00,76.6,53.1,29.91,West,270,1.6,1.6,44,0.00,,,0.00,VWS V14.01,2013-08-02 18:54:00,
2013-08-02 13:59:00,77.2,53.6,29.91,WNW,292,0.9,4.9,44,0.00,,,0.00,VWS V14.01,2013-08-02 18:59:00,
2013-08-02 14:04:00,77.7,53.5,29.94,SE,135,2.5,7.4,43,0.00,,,0.00,VWS V14.01,2013-08-02 19:04:00,
2013-08-02 14:09:00,77.7,52.2,29.94,WNW,292,2.7,7.4,41,0.00,,,0.00,VWS V14.01,2013-08-02 19:09:00,
2013-08-02 14:14:00,77.7,51.5,29.94,WNW,292,3.1,6.9,40,0.00,,,0.00,VWS V14.01,2013-08-02 19:14:00,
2013-08-02 14:19:00,77.5,51.3,29.94,West,270,2.9,4.3,40,0.00,,,0.00,VWS V14.01,2013-08-02 19:19:00,
2013-08-02 14:25:00,77.2,51.0,29.94,SW,225,2.9,6.0,40,0.00,,,0.00,VWS V14.01,2013-08-02 19:25:00,
2013-08-02 14:30:00,76.8,51.4,29.94,East,90,1.6,5.8,41,0.00,,,0.00,VWS V14.01,2013-08-02 19:30:00,
2013-08-02 14:35:00,77.0,50.9,29.94,ENE,68,3.6,4.3,40,0.00,,,0.00,VWS V14.01,2013-08-02 19:35:00,
2013-08-02 14:40:00,76.6,50.5,29.94,NNE,22,1.3,6.0,40,0.00,,,0.00,VWS V14.01,2013-08-02 19:40:00,
2013-08-02 14:45:00,76.6,51.2,29.94,WNW,292,2.7,5.4,41,0.00,,,0.00,VWS V14.01,2013-08-02 19:45:00,
2013-08-02 14:50:00,77.0,51.5,29.94,NE,45,2.5,5.6,41,0.00,,,0.00,VWS V14.01,2013-08-02 19:50:00,
2013-08-02 14:55:00,77.0,51.5,29.94,West,270,1.3,3.1,41,0.00,,,0.00,VWS V14.01,2013-08-02 19:55:00,
2013-08-02 15:00:00,76.8,51.4,29.94,WSW,248,5.6,6.5,41,0.00,,,0.00,VWS V14.01,2013-08-02 20:00:00,
2013-08-02 15:05:00,76.5,51.0,29.94,WNW,292,5.4,6.3,41,0.00,,,0.00,VWS V14.01,2013-08-02 20:05:00,
2013-08-02 15:10:00,76.8,51.4,29.94,WNW,292,2.5,4.3,41,0.00,,,0.00,VWS V14.01,2013-08-02 20:10:00,
2013-08-02 15:15:00,77.0,50.9,29.94,South,180,2.0,5.4,40,0.00,,,0.00,VWS V14.01,2013-08-02 20:15:00,
2013-08-02 15:20:00,77.2,51.0,29.94,WNW,292,1.3,3.6,40,0.00,,,0.00,VWS V14.01,2013-08-02 20:20:00,
2013-08-02 15:26:00,77.2,51.0,29.94,NW,315,2.7,7.4,40,0.00,,,0.00,VWS V14.01,2013-08-02 20:26:00,
2013-08-02 15:31:00,76.8,50.7,29.94,West,270,2.0,5.4,40,0.00,,,0.00,VWS V14.01,2013-08-02 20:31:00,
2013-08-02 15:36:00,76.6,50.5,29.94,NW,315,4.0,5.6,40,0.00,,,0.00,VWS V14.01,2013-08-02 20:36:00,
2013-08-02 15:41:00,76.3,49.5,29.94,WNW,292,1.1,4.9,39,0.00,,,0.00,VWS V14.01,2013-08-02 20:41:00,
2013-08-02 15:46:00,76.3,50.9,29.97,NW,315,3.1,3.6,41,0.00,,,0.00,VWS V14.01,2013-08-02 20:46:00,
2013-08-02 15:51:00,76.3,50.9,29.97,East,90,3.4,6.0,41,0.00,,,0.00,VWS V14.01,2013-08-02 20:51:00,
2013-08-02 15:57:00,76.3,50.9,29.97,WNW,292,2.7,3.1,41,0.00,,,0.00,VWS V14.01,2013-08-02 20:57:00,
2013-08-02 16:02:00,76.1,50.7,29.94,SSW,202,3.1,5.4,41,0.00,,,0.00,VWS V14.01,2013-08-02 21:02:00,
2013-08-02 16:07:00,76.1,50.7,29.94,East,90,3.1,3.1,41,0.00,,,0.00,VWS V14.01,2013-08-02 21:07:00,
2013-08-02 16:12:00,75.9,50.5,29.94,SSW,202,2.9,5.4,41,0.00,,,0.00,VWS V14.01,2013-08-02 21:12:00,
2013-08-02 16:17:00,75.6,49.6,29.94,NNE,22,1.1,7.4,40,0.00,,,0.00,VWS V14.01,2013-08-02 21:17:00,
2013-08-02 16:22:00,75.9,50.5,29.94,WNW,292,3.4,4.0,41,0.00,,,0.00,VWS V14.01,2013-08-02 21:22:00,
2013-08-02 16:27:00,75.7,50.4,29.94,WSW,248,4.9,7.8,41,0.00,,,0.00,VWS V14.01,2013-08-02 21:27:00,
2013-08-02 16:33:00,75.7,50.4,29.94,West,270,2.5,4.3,41,0.00,,,0.00,VWS V14.01,2013-08-02 21:33:00,
2013-08-02 16:38:00,75.6,50.2,29.94,SW,225,2.9,2.9,41,0.00,,,0.00,VWS V14.01,2013-08-02 21:38:00,
2013-08-02 16:43:00,75.9,50.5,29.94,WNW,292,2.0,2.0,41,0.00,,,0.00,VWS V14.01,2013-08-02 21:43:00,
2013-08-02 16:48:00,76.5,51.0,29.94,NW,315,2.9,4.0,41,0.00,,,0.00,VWS V14.01,2013-08-02 21:48:00,
2013-08-02 16:53:00,76.8,51.4,29.94,SSW,202,2.7,5.6,41,0.00,,,0.00,VWS V14.01,2013-08-02 21:53:00,
2013-08-02 16:58:00,76.5,51.0,29.94,WNW,292,0.0,2.2,41,0.00,,,0.00,VWS V14.01,2013-08-02 21:58:00,
2013-08-02 17:03:00,76.3,50.9,29.97,WNW,292,0.0,2.0,41,0.00,,,0.00,VWS V14.01,2013-08-02 22:03:00,
2013-08-02 17:08:00,75.9,50.5,29.97,ENE,68,2.7,3.4,41,0.00,,,0.00,VWS V14.01,2013-08-02 22:08:00,
2013-08-02 17:14:00,75.6,50.9,29.97,WSW,248,4.7,4.7,42,0.00,,,0.00,VWS V14.01,2013-08-02 22:14:00,
2013-08-02 17:19:00,75.4,50.7,29.94,WSW,248,2.2,3.1,42,0.00,,,0.00,VWS V14.01,2013-08-02 22:19:00,
2013-08-02 17:24:00,75.2,50.6,29.94,NW,315,0.0,1.6,42,0.00,,,0.00,VWS V14.01,2013-08-02 22:24:00,
2013-08-02 17:29:00,75.0,51.0,29.94,SSE,158,1.1,1.3,43,0.00,,,0.00,VWS V14.01,2013-08-02 22:29:00,
2013-08-02 17:34:00,74.8,50.9,29.97,SW,225,2.0,2.5,43,0.00,,,0.00,VWS V14.01,2013-08-02 22:34:00,
2013-08-02 17:39:00,74.5,51.2,29.97,WNW,292,0.0,3.6,44,0.00,,,0.00,VWS V14.01,2013-08-02 22:39:00,
2013-08-02 17:44:00,74.5,51.2,29.97,NNW,338,2.9,3.6,44,0.00,,,0.00,VWS V14.01,2013-08-02 22:44:00,
2013-08-02 17:49:00,74.3,51.0,29.97,NW,315,3.1,5.6,44,0.00,,,0.00,VWS V14.01,2013-08-02 22:49:00,
2013-08-02 17:54:00,74.1,50.8,29.97,SSE,158,3.4,3.6,44,0.00,,,0.00,VWS V14.01,2013-08-02 22:54:00,
2013-08-02 17:59:00,73.9,50.7,29.97,WSW,248,2.0,2.7,44,0.00,,,0.00,VWS V14.01,2013-08-02 22:59:00,
2013-08-02 18:04:00,73.8,50.5,29.94,North,0,4.7,4.7,44,0.00,,,0.00,VWS V14.01,2013-08-02 23:04:00,
2013-08-02 18:09:00,73.8,50.5,29.94,SW,225,3.6,3.8,44,0.00,,,0.00,VWS V14.01,2013-08-02 23:09:00,
2013-08-02 18:14:00,73.8,51.1,29.94,West,270,1.6,2.7,45,0.00,,,0.00,VWS V14.01,2013-08-02 23:14:00,
2013-08-02 18:19:00,73.8,51.1,29.97,NNW,338,1.1,3.6,45,0.00,,,0.00,VWS V14.01,2013-08-02 23:19:00,
2013-08-02 18:25:00,73.8,51.1,29.97,East,90,0.9,2.7,45,0.00,,,0.00,VWS V14.01,2013-08-02 23:25:00,
2013-08-02 18:30:00,73.9,51.3,29.97,East,90,1.3,3.6,45,0.00,,,0.00,VWS V14.01,2013-08-02 23:30:00,
2013-08-02 18:35:00,74.1,51.4,29.97,WNW,292,1.1,3.6,45,0.00,,,0.00,VWS V14.01,2013-08-02 23:35:00,
2013-08-02 18:40:00,74.1,51.4,29.97,West,270,2.0,4.0,45,0.00,,,0.00,VWS V14.01,2013-08-02 23:40:00,
2013-08-02 18:45:00,74.1,51.4,29.97,NW,315,2.9,5.4,45,0.00,,,0.00,VWS V14.01,2013-08-02 23:45:00,
2013-08-02 18:51:00,73.9,51.3,29.97,North,0,2.2,2.9,45,0.00,,,0.00,VWS V14.01,2013-08-02 23:51:00,
2013-08-02 18:56:00,73.4,50.8,29.97,WSW,248,3.1,3.8,45,0.00,,,0.00,VWS V14.01,2013-08-02 23:56:00,
2013-08-02 19:01:00,73.2,50.6,29.97,WNW,292,2.2,3.1,45,0.00,,,0.00,VWS V14.01,2013-08-03 00:01:00,
2013-08-02 19:06:00,72.7,50.1,30.00,South,180,0.9,2.5,45,0.00,,,0.00,VWS V14.01,2013-08-03 00:06:00,
2013-08-02 19:11:00,72.3,49.8,30.00,SE,135,0.0,2.7,45,0.00,,,0.00,VWS V14.01,2013-08-03 00:11:00,
2013-08-02 19:16:00,72.0,50.1,30.00,NW,315,0.9,2.5,46,0.00,,,0.00,VWS V14.01,2013-08-03 00:16:00,
2013-08-02 19:21:00,71.6,49.8,30.00,SW,225,0.0,2.5,46,0.00,,,0.00,VWS V14.01,2013-08-03 00:21:00,
2013-08-02 19:26:00,71.4,50.2,30.00,WSW,248,0.0,2.5,47,0.00,,,0.00,VWS V14.01,2013-08-03 00:26:00,
2013-08-02 19:31:00,71.2,50.6,30.00,SSW,202,0.0,2.0,48,0.00,,,0.00,VWS V14.01,2013-08-03 00:31:00,
2013-08-02 19:37:00,71.1,50.4,30.00,SW,225,0.0,1.3,48,0.00,,,0.00,VWS V14.01,2013-08-03 00:37:00,
2013-08-02 19:42:00,70.9,50.2,30.00,NW,315,4.0,4.0,48,0.00,,,0.00,VWS V14.01,2013-08-03 00:42:00,
2013-08-02 19:47:00,70.9,50.2,30.00,NW,315,0.0,2.7,48,0.00,,,0.00,VWS V14.01,2013-08-03 00:47:00,
2013-08-02 19:52:00,70.7,50.6,30.00,WNW,292,0.0,2.0,49,0.00,,,0.00,VWS V14.01,2013-08-03 00:52:00,
2013-08-02 19:57:00,70.3,50.8,30.00,SSE,158,0.0,0.0,50,0.00,,,0.00,VWS V14.01,2013-08-03 00:57:00,
2013-08-02 20:02:00,69.8,50.3,30.00,SSE,158,0.0,0.0,50,0.00,,,0.00,VWS V14.01,2013-08-03 01:02:00,
2013-08-02 20:07:00,69.3,50.9,30.00,SSE,158,0.0,0.0,52,0.00,,,0.00,VWS V14.01,2013-08-03 01:07:00,
2013-08-02 20:12:00,68.5,50.8,30.00,SSE,158,0.0,0.0,53,0.00,,,0.00,VWS V14.01,2013-08-03 01:12:00,
2013-08-02 20:17:00,67.8,51.1,30.00,SSE,158,0.0,0.0,55,0.00,,,0.00,VWS V14.01,2013-08-03 01:17:00,
2013-08-02 20:22:00,67.1,51.4,30.00,SSE,158,0.0,0.0,57,0.00,,,0.00,VWS V14.01,2013-08-03 01:22:00,
2013-08-02 20:27:00,66.6,51.3,30.00,SSE,158,0.0,0.0,58,0.00,,,0.00,VWS V14.01,2013-08-03 01:27:00,
2013-08-02 20:32:00,66.0,51.8,30.00,SSE,158,0.0,0.0,60,0.00,,,0.00,VWS V14.01,2013-08-03 01:32:00,
2013-08-02 20:37:00,65.5,53.0,30.00,SSE,158,0.0,0.0,64,0.00,,,0.00,VWS V14.01,2013-08-03 01:37:00,
2013-08-02 20:42:00,64.8,53.6,30.00,SSE,158,0.0,0.0,67,0.00,,,0.00,VWS V14.01,2013-08-03 01:42:00,
2013-08-02 20:47:00,64.4,52.8,30.00,SSE,158,0.0,0.0,66,0.00,,,0.00,VWS V14.01,2013-08-03 01:47:00,
2013-08-02 20:52:00,63.7,52.5,30.00,SSE,158,0.0,0.0,67,0.00,,,0.00,VWS V14.01,2013-08-03 01:52:00,
2013-08-02 20:57:00,63.1,53.2,30.00,SSE,158,0.0,0.0,70,0.00,,,0.00,VWS V14.01,2013-08-03 01:57:00,
2013-08-02 21:03:00,62.8,52.9,30.00,SSE,158,0.0,0.0,70,0.00,,,0.00,VWS V14.01,2013-08-03 02:03:00,
2013-08-02 21:07:00,62.2,53.1,30.00,SSE,158,0.0,0.0,72,0.00,,,0.00,VWS V14.01,2013-08-03 02:07:00,
2013-08-02 21:12:00,61.7,52.6,30.00,SSE,158,0.0,0.0,72,0.00,,,0.00,VWS V14.01,2013-08-03 02:12:00,
2013-08-02 21:17:00,61.2,52.5,30.00,SSE,158,0.0,0.0,73,0.00,,,0.00,VWS V14.01,2013-08-03 02:17:00,
2013-08-02 21:23:00,60.6,51.9,30.00,SSE,158,0.0,0.0,73,0.00,,,0.00,VWS V14.01,2013-08-03 02:23:00,
2013-08-02 21:28:00,60.1,52.1,30.00,SSE,158,0.0,0.0,75,0.00,,,0.00,VWS V14.01,2013-08-03 02:28:00,
2013-08-02 21:33:00,59.7,52.2,30.03,SSE,158,0.0,0.0,76,0.00,,,0.00,VWS V14.01,2013-08-03 02:33:00,
2013-08-02 21:38:00,59.4,51.8,30.03,SSE,158,0.0,0.0,76,0.00,,,0.00,VWS V14.01,2013-08-03 02:38:00,
2013-08-02 21:43:00,58.8,52.0,30.03,SSE,158,0.0,0.0,78,0.00,,,0.00,VWS V14.01,2013-08-03 02:43:00,
2013-08-02 21:48:00,58.5,52.0,30.03,SSE,158,0.0,0.0,79,0.00,,,0.00,VWS V14.01,2013-08-03 02:48:00,
2013-08-02 21:53:00,58.1,51.6,30.03,SSE,158,0.0,0.0,79,0.00,,,0.00,VWS V14.01,2013-08-03 02:53:00,
2013-08-02 21:58:00,57.7,51.6,30.03,SSE,158,0.0,0.0,80,0.00,,,0.00,VWS V14.01,2013-08-03 02:58:00,
2013-08-02 22:03:00,57.4,51.6,30.03,SSE,158,0.0,0.0,81,0.00,,,0.00,VWS V14.01,2013-08-03 03:03:00,
2013-08-02 22:08:00,57.2,51.4,30.03,SSE,158,0.0,0.0,81,0.00,,,0.00,VWS V14.01,2013-08-03 03:08:00,
2013-08-02 22:13:00,56.8,51.7,30.03,SSE,158,0.0,0.0,83,0.00,,,0.00,VWS V14.01,2013-08-03 03:13:00,
2013-08-02 22:18:00,56.7,51.6,30.03,SSE,158,0.0,0.0,83,0.00,,,0.00,VWS V14.01,2013-08-03 03:18:00,
2013-08-02 22:23:00,56.3,51.2,30.03,SSE,158,0.0,0.0,83,0.00,,,0.00,VWS V14.01,2013-08-03 03:23:00,
2013-08-02 22:29:00,56.1,51.0,30.03,SSE,158,0.0,0.0,83,0.00,,,0.00,VWS V14.01,2013-08-03 03:29:00,
2013-08-02 22:34:00,55.9,51.2,30.03,SSE,158,0.0,0.0,84,0.00,,,0.00,VWS V14.01,2013-08-03 03:34:00,
2013-08-02 22:39:00,55.8,51.0,30.03,SSE,158,0.0,0.0,84,0.00,,,0.00,VWS V14.01,2013-08-03 03:39:00,
2013-08-02 22:44:00,55.6,51.2,30.03,SSE,158,0.0,0.0,85,0.00,,,0.00,VWS V14.01,2013-08-03 03:44:00,
2013-08-02 22:49:00,55.4,51.0,30.03,SSE,158,0.0,0.0,85,0.00,,,0.00,VWS V14.01,2013-08-03 03:49:00,
2013-08-02 22:54:00,55.0,50.9,30.03,SSE,158,0.0,0.0,86,0.00,,,0.00,VWS V14.01,2013-08-03 03:54:00,
2013-08-02 22:59:00,54.9,51.1,30.03,SSE,158,0.0,0.0,87,0.00,,,0.00,VWS V14.01,2013-08-03 03:59:00,
2013-08-02 23:01:00,54.9,50.8,30.03,SSE,158,0.0,0.0,86,0.00,,,0.00,VWS V14.01,2013-08-03 04:01:00,
2013-08-02 23:02:00,54.9,51.1,30.03,SSE,158,0.0,0.0,87,0.00,,,0.00,VWS V14.01,2013-08-03 04:02:00,
2013-08-02 23:03:00,54.7,50.9,30.03,SSE,158,0.0,0.0,87,0.00,,,0.00,VWS V14.01,2013-08-03 04:03:00,
2013-08-02 23:07:00,54.5,50.4,30.03,SSE,158,0.0,0.0,86,0.00,,,0.00,VWS V14.01,2013-08-03 04:07:00,
2013-08-02 23:12:00,54.5,51.0,30.03,NE,45,0.0,0.0,88,0.00,,,0.00,VWS V14.01,2013-08-03 04:12:00,
2013-08-02 23:17:00,54.3,51.2,30.03,NE,45,0.0,0.0,89,0.00,,,0.00,VWS V14.01,2013-08-03 04:17:00,
2013-08-02 23:22:00,54.3,51.2,30.03,NE,45,0.0,0.0,89,0.00,,,0.00,VWS V14.01,2013-08-03 04:22:00,
2013-08-02 23:27:00,54.1,51.3,30.03,NE,45,0.0,0.0,90,0.00,,,0.00,VWS V14.01,2013-08-03 04:27:00,
2013-08-02 23:32:00,54.0,51.1,30.03,NE,45,0.0,0.0,90,0.00,,,0.00,VWS V14.01,2013-08-03 04:32:00,
2013-08-02 23:37:00,53.8,50.9,30.03,NE,45,0.0,0.0,90,0.00,,,0.00,VWS V14.01,2013-08-03 04:37:00,
2013-08-02 23:42:00,53.6,50.7,30.03,NE,45,0.0,0.0,90,0.00,,,0.00,VWS V14.01,2013-08-03 04:42:00,
2013-08-02 23:47:00,53.4,50.9,30.06,NE,45,0.0,0.0,91,0.00,,,0.00,VWS V14.01,2013-08-03 04:47:00,
2013-08-02 23:53:00,53.2,50.7,30.06,NE,45,0.0,0.0,91,0.00,,,0.00,VWS V14.01,2013-08-03 04:53:00,
2013-08-02 23:57:00,53.1,50.5,30.06,NE,45,0.0,0.0,91,0.00,,,0.00,VWS V14.01,2013-08-03 04:57:00,